Temperature
21 21 21 20 18 17 18 19 19 19 19 19 19 19 18 18 18 18 18 17 18 18 18 17 18 18 17 18 18 18 18 18 18 18 17 18 18 18 18 18 18 18 18 18 18 18 18 18 18
21 21 21 20 17 17 19 19 19 20 20 20 19 19 18 17 18 18 18 17 17 18 18 17 17 17 17 17 17 17 17 18 18 17 17 17 18 18 18 18 18 18 18 18 17 17 17 17 17
21 21 20 17 17 18 19 20 19 20 20 20 19 18 18 18 18 18 18 18 17 18 18 17 17 17 17 17 17 17 17 17 17 17 17 17 17 17 17 17 17 17 17 17 17 17 17 17 17
21 20 19 17 18 18 19 19 19 19 20 20 19 18 18 18 18 18 18 18 17 17 17 17 17 17 17 17 17 17 17 17 17 17 17 17 17 17 17 17 17 17 17 17 17 17 17 17 17
21 20 17 17 18 19 19 19 20 19 19 19 18 17 17 18 18 18 18 18 18 17 17 17 17 17 17 17 17 17 17 17 17 17 17 17 17 17 17 17 17 17 17 17 17 17 17 17 17
20 17 17 17 18 19 19 20 20 19 19 19 18 17 17 18 18 18 18 18 17 17 17 17 17 17 17 17 17 17 17 17 17 17 17 17 17 17 17 17 17 17 17 17 17 17 17 17 17
19 16 17 18 18 19 20 20 20 19 18 19 19 17 17 18 18 18 18 17 17 17 17 17 17 17 17 17 17 17 17 17 17 17 17 17 17 17 16 16 17 17 17 17 17 17 17 17 17
20 16 17 17 18 19 20 20 20 20 19 19 19 18 17 18 18 18 17 17 17 17 17 17 17 17 17 17 17 17 17 17 17 17 16 16 16 16 16 16 16 16 16 16 16 17 17 17 17
20 16 17 18 18 19 20 20 20 20 19 18 18 18 18 18 18 17 17 17 17 17 17 17 17 17 16 16 16 16 16 16 16 16 16 16 16 16 16 16 16 16 16 16 16 16 16 16 16
19 16 18 18 18 19 19 19 19 19 18 18 18 18 18 18 18 18 17 17 17 17 17 17 17 16 16 16 16 16 16 16 16 16 16 16 16 16 16 16 16 16 16 16 16 16 16 16 16
18 17 18 19 20 20 19 19 19 18 17 18 18 18 18 18 17 17 17 17 17 17 17 17 17 16 16 16 16 16 16 16 16 16 16 16 16 16 16 16 16 16 16 16 16 16 16 16 16
18 18 19 20 20 20 19 19 19 19 19 20 19 19 18 18 17 17 17 17 17 17 17 17 16 16 16 16 16 16 16 16 16 16 16 16 16 16 16 15 15 15 15 15 15 16 15 15 15
18 19 19 20 20 20 19 19 19 18 19 19 19 18 18 18 17 17 17 17 17 17 17 17 17 16 16 16 16 16 16 16 16 16 16 16 16 15 15 15 15 15 15 15 15 15 15 15 15
19 19 19 20 20 20 19 18 18 18 19 18 18 18 18 18 17 17 17 17 17 17 17 17 17 16 16 16 16 16 16 16 16 15 15 15 15 15 15 15 15 15 15 15 15 15 15 15 15
19 18 19 19 19 19 19 18 18 18 18 18 17 17 17 17 17 17 17 17 17 17 17 17 17 16 16 16 16 16 16 16 16 15 15 15 15 15 15 15 15 15 15 15 15 15 15 15 15
18 18 17 18 18 19 19 17 17 18 18 17 17 17 17 17 17 17 17 17 17 17 17 17 17 16 16 16 16 16 16 16 16 15 15 15 15 15 15 15 15 15 14 14 14 14 14 14 14
17 17 17 18 18 18 18 17 17 17 17 17 17 17 17 17 17 17 17 17 17 17 17 17 16 16 16 16 16 16 16 15 15 15 15 15 15 15 15 15 15 14 14 14 14 14 14 14 14
17 17 17 17 18 18 17 17 17 17 17 16 16 17 17 17 17 17 17 17 17 17 17 17 16 16 16 16 16 16 15 15 15 15 15 15 15 15 15 14 14 14 14 14 14 14 14 14 14
18 17 17 17 18 17 17 16 16 16 16 16 16 16 17 17 17 17 17 17 17 17 17 16 16 16 16 16 16 16 15 15 15 15 15 15 15 14 14 14 14 14 14 14 14 14 14 14 14
17 17 17 17 18 18 17 16 16 16 16 16 16 16 17 17 17 17 17 17 17 17 16 16 16 16 16 16 16 15 15 15 15 15 14 14 14 14 14 14 14 14 14 14 14 14 14 14 13
17 17 17 17 17 17 17 16 16 16 16 16 16 17 17 17 17 17 17 17 17 16 16 16 16 16 16 16 15 15 15 15 15 15 14 14 14 14 14 14 14 14 14 14 14 14 14 14 13
17 18 18 17 16 15 16 15 16 15 15 15 16 16 16 17 17 17 17 17 17 17 16 16 16 16 15 15 15 15 15 15 15 14 14 14 14 14 14 14 14 14 14 14 14 14 13 13 13
18 17 17 17 16 15 15 15 15 15 15 15 15 16 16 17 17 17 17 17 17 16 16 16 16 15 15 15 15 15 15 15 14 14 14 14 14 14 14 14 14 14 14 13 13 13 13 13 13
17 16 16 14 14 15 15 15 15 14 15 15 15 16 16 16 17 17 17 17 17 16 16 16 15 15 15 15 15 15 15 15 14 14 14 14 14 14 14 14 13 13 13 13 13 13 13 13 13
17 15 15 15 14 14 15 15 15 15 15 15 15 16 16 17 16 16 16 17 16 16 16 16 15 15 15 15 15 15 14 14 14 14 14 14 14 14 14 13 13 13 13 13 13 13 13 13 13
16 16 15 15 14 14 14 14 15 15 15 16 16 16 16 16 16 16 16 16 16 16 16 15 15 15 15 15 14 14 14 14 14 14 14 14 14 13 13 13 13 13 13 13 13 13 13 13 13
16 15 15 14 14 14 14 14 15 15 15 15 15 15 16 16 16 16 16 16 16 16 15 15 15 15 15 15 14 14 14 14 14 14 14 14 13 13 13 13 13 13 13 13 13 13 13 13 13
16 14 13 13 14 14 14 14 14 15 15 14 14 14 15 16 16 16 16 16 15 15 15 15 15 15 15 15 14 14 14 14 14 14 14 14 13 13 13 13 13 13 13 13 12 12 12 12 12
15 15 13 12 13 13 14 14 15 15 14 14 14 15 15 15 15 15 15 15 15 15 15 15 15 14 14 14 14 14 14 14 14 14 13 13 13 13 13 13 12 12 12 12 12 12 12 12 12
15 14 13 14 13 12 12 13 15 14 14 14 14 15 15 15 15 15 15 15 15 15 14 14 14 14 14 14 14 14 14 13 13 13 13 13 13 13 13 12 12 12 12 12 12 12 12 12 12
Wind_Speed
2 4 3 4 5 5 2 1 0 1 2 2 4 6 6 4 2 2 1 2 2 2 1 2 5 7 8 9 9 10 10 11 11 12 12 12 12 11 11 11 12 12 12 12 12 12 12 12 12
2 3 4 5 5 3 2 1 1 1 4 4 5 5 5 4 3 4 1 2 3 3 2 3 5 7 8 9 10 10 11 11 12 12 13 13 12 12 12 12 12 12 12 12 12 12 12 12 12
2 3 4 4 4 4 2 1 2 3 3 2 4 4 4 3 2 3 2 4 4 3 3 4 6 8 9 9 10 11 11 11 11 11 12 12 12 12 12 12 12 12 12 13 12 12 12 11 11
3 4 5 5 3 1 2 2 3 4 3 4 4 4 3 2 3 3 5 5 5 4 4 5 7 8 9 10 10 11 11 11 11 11 11 11 11 12 12 12 12 12 12 12 12 12 12 11 11
4 4 5 3 1 1 1 1 3 3 2 3 4 4 3 4 4 7 6 5 5 4 4 5 7 8 9 10 10 10 10 11 10 11 11 12 12 12 12 12 12 12 12 12 12 12 11 11 10
4 4 4 1 1 2 1 1 3 4 3 3 4 4 2 2 5 6 6 5 5 4 4 5 6 8 8 9 9 10 10 10 11 11 11 12 11 12 12 12 12 12 12 12 12 12 11 11 10
4 4 4 3 0 1 0 1 3 4 3 3 5 5 2 2 3 5 5 5 5 5 4 4 5 6 7 8 9 10 10 11 11 11 11 11 12 12 12 12 12 12 12 12 11 11 11 10 10
4 5 3 1 2 1 1 2 2 3 2 3 4 6 4 4 5 6 6 6 5 5 4 4 5 6 5 6 8 9 9 10 10 10 11 11 12 11 11 12 12 12 12 12 11 11 11 10 10
4 5 3 3 4 1 1 2 2 3 5 3 2 3 4 9 9 8 6 4 4 4 3 3 4 4 4 4 6 7 8 9 9 9 10 10 10 9 10 11 11 11 11 11 11 11 10 10 10
4 4 4 3 4 2 1 3 3 4 4 3 4 5 8 10 9 8 7 5 3 3 2 2 2 3 3 4 5 6 6 7 7 8 8 8 8 9 9 11 11 11 11 11 11 11 10 9 8
4 4 3 2 2 3 3 3 3 6 2 3 5 7 9 9 7 7 6 5 4 3 2 2 2 2 3 3 4 4 5 6 6 6 7 7 7 7 8 8 8 9 9 9 9 9 8 8 7
3 1 3 2 2 3 3 3 4 3 3 4 7 11 10 9 7 7 6 5 4 4 3 2 2 2 3 3 3 3 3 3 3 4 5 5 4 4 5 5 6 6 7 7 7 7 8 8 8
2 1 1 2 3 2 4 3 3 1 1 6 8 9 9 8 6 4 4 4 4 4 3 3 3 2 2 3 2 2 2 3 3 3 4 4 3 3 3 4 5 5 6 6 5 6 6 6 7
2 2 1 1 2 2 4 2 2 1 4 8 8 8 7 6 6 4 4 4 4 4 4 3 3 3 3 2 2 2 2 3 3 3 3 4 4 3 3 3 4 4 5 5 6 5 5 4 5
2 3 3 2 0 1 4 2 1 3 7 8 7 6 5 4 4 5 5 5 5 4 4 4 4 3 3 3 2 2 3 3 2 2 3 4 4 4 4 3 3 3 5 6 6 6 5 4 5
3 3 1 3 1 1 4 3 3 4 8 7 6 5 5 4 4 4 4 4 4 4 4 4 4 4 4 3 3 3 3 3 2 3 3 4 4 5 5 3 3 4 5 4 4 3 4 4 4
4 1 2 3 1 2 4 4 3 5 7 7 6 5 5 4 3 3 3 4 4 4 4 4 4 5 4 4 3 3 3 3 2 3 3 4 4 5 5 3 3 4 4 3 3 3 3 3 4
3 2 2 3 1 3 3 4 3 5 7 6 6 5 5 5 5 3 3 4 4 4 4 4 4 4 4 4 4 3 3 2 3 2 3 3 4 5 5 3 3 4 3 3 3 4 4 3 3
4 3 3 4 2 3 4 4 5 5 5 5 5 6 6 6 3 2 3 4 4 4 4 4 4 4 4 3 3 3 1 1 1 1 2 3 3 4 4 3 3 3 3 3 3 3 4 3 2
3 2 2 2 0 3 3 4 4 4 6 7 8 8 8 5 3 3 3 4 4 4 4 4 4 5 4 3 3 2 2 1 1 1 2 2 2 3 3 3 2 2 3 3 3 3 2 2 2
2 4 4 3 1 2 1 4 3 2 3 3 4 5 6 7 7 6 5 4 4 5 5 5 5 5 4 3 3 3 3 3 2 1 0 0 1 2 3 3 3 2 2 3 2 3 3 2 1
4 4 4 3 2 1 1 2 5 3 3 3 4 4 6 6 6 6 6 6 6 6 5 4 4 5 4 4 5 5 4 2 2 2 1 0 1 1 2 3 3 2 2 2 2 2 2 3 2
4 2 3 2 3 1 1 1 6 2 3 5 5 5 6 6 7 7 8 8 7 5 5 4 4 4 4 5 5 5 4 3 1 1 1 1 0 1 2 2 3 2 2 2 2 2 2 2 3
4 5 4 4 3 1 2 3 5 3 5 5 4 4 4 5 6 6 5 5 4 4 4 4 5 4 4 5 5 5 5 4 3 2 2 1 0 0 1 2 2 2 2 2 2 2 3 3 3
5 5 3 3 2 4 2 3 6 5 4 4 4 4 3 4 5 4 4 5 5 5 5 5 6 5 5 5 5 5 5 5 5 4 3 3 2 2 2 2 2 2 2 3 2 2 2 3 3
3 7 6 4 3 4 1 4 5 3 2 2 2 2 1 2 3 4 5 5 6 7 7 6 6 5 5 6 5 5 4 4 3 4 4 4 3 3 3 3 3 2 2 2 2 2 2 3 3
5 3 5 5 2 1 4 5 5 1 2 2 1 2 0 1 1 2 3 3 4 5 6 7 7 6 6 6 5 4 4 4 4 4 3 3 2 2 3 3 3 2 2 2 2 2 2 3 3
4 7 5 4 3 2 5 4 3 3 3 1 0 1 2 1 0 0 1 2 3 4 4 5 5 6 6 5 5 4 4 4 4 3 3 3 3 3 3 3 3 2 2 2 2 2 2 2 3
3 3 4 3 4 4 3 5 4 5 4 3 4 3 2 2 1 1 1 1 2 2 3 3 3 3 3 4 4 4 3 3 3 3 3 3 3 3 3 4 3 3 3 2 2 2 2 3 3
3 4 5 4 3 3 3 6 3 3 3 3 3 2 2 2 1 1 0 1 1 1 2 2 2 3 3 4 4 4 3 3 3 3 3 3 3 3 3 3 3 3 3 3 3 4 3 4 4
Wind_Direction
38 81 76 56 54 54 53 335 359 51 54 40 66 86 99 91 98 134 254 138 126 118 68 82 76 69 71 75 78 82 87 86 82 79 84 90 91 90 89 88 88 89 90 92 93 94 94 92 92
88 81 57 59 79 75 344 321 84 111 141 133 71 71 74 66 73 106 108 156 127 113 81 90 87 79 77 81 83 84 85 83 83 82 83 86 87 86 86 86 87 88 89 91 93 94 96 95 94
100 57 74 70 93 147 169 199 131 83 108 101 79 62 80 90 106 138 171 141 107 90 78 88 91 88 84 83 87 88 88 86 85 83 82 84 85 84 85 85 85 85 86 87 91 94 95 97 95
84 49 55 69 86 206 182 166 138 117 70 53 95 73 60 57 138 149 134 121 106 87 77 85 91 90 87 85 88 92 90 88 87 85 84 82 83 82 80 82 82 82 83 84 85 89 91 93 94
63 76 65 56 9 317 291 185 141 112 80 61 91 92 46 10 97 119 121 118 111 92 78 86 92 91 88 87 86 89 89 88 84 84 82 81 80 80 79 78 78 78 79 82 83 84 85 85 89
62 72 90 121 323 324 321 148 112 93 93 92 100 102 81 84 111 125 120 114 108 102 85 83 91 90 88 89 88 90 90 87 84 82 81 83 81 78 77 75 75 76 77 80 82 82 81 81 86
104 98 129 149 110 333 250 114 120 118 117 150 131 111 123 149 136 124 111 101 90 83 77 64 69 79 83 84 86 86 86 84 83 81 80 79 76 74 74 73 73 75 76 79 80 78 77 78 83
119 103 101 135 149 248 156 104 111 118 125 108 118 136 168 179 134 109 95 84 81 74 67 58 56 60 62 72 82 82 82 80 79 78 78 74 68 67 69 69 71 73 74 74 74 75 74 76 80
92 86 149 189 173 216 118 100 76 75 96 77 81 139 158 136 124 112 98 81 85 87 68 64 58 53 55 63 75 72 73 71 72 70 73 68 59 57 61 67 70 72 71 70 69 71 71 73 74
91 132 197 199 176 162 90 98 119 87 83 74 59 66 109 127 133 135 141 143 140 139 120 85 74 62 54 60 63 59 61 60 63 67 68 65 61 59 64 66 67 68 69 68 67 68 65 66 66
119 160 182 182 167 131 105 88 97 122 141 184 158 141 134 137 145 153 158 159 167 165 150 120 110 85 70 56 62 58 58 56 56 62 70 71 65 62 59 58 55 56 60 61 62 59 58 61 63
114 171 170 159 106 103 123 115 101 133 205 184 155 148 146 151 161 169 169 166 159 154 168 157 140 108 86 73 68 65 65 59 53 51 72 81 73 64 61 59 55 57 62 66 63 64 62 61 61
126 158 136 138 106 99 96 97 122 143 99 116 125 136 150 158 163 164 165 161 152 163 176 172 151 138 108 87 80 79 73 72 67 61 71 92 92 78 69 63 64 65 71 76 72 66 63 60 58
161 129 46 38 106 107 108 78 98 179 118 120 133 149 156 161 162 151 159 169 168 171 180 164 158 150 126 119 112 101 87 80 76 69 72 87 102 100 83 70 64 66 73 80 81 73 66 61 62
96 77 26 355 114 145 110 19 240 165 131 138 153 161 163 172 162 167 177 175 173 173 173 162 163 144 138 137 135 105 95 94 89 83 88 89 101 108 105 91 74 71 81 85 82 74 70 66 61
71 69 3 306 157 154 128 247 262 157 145 158 169 173 178 192 188 189 180 170 169 164 165 163 159 142 141 139 123 103 97 96 91 90 89 91 100 111 108 100 87 86 88 89 83 72 74 66 62
46 116 223 296 238 148 154 229 248 154 159 172 182 188 191 201 214 201 180 171 167 163 161 154 141 143 144 123 102 101 90 88 88 90 88 96 100 106 110 107 103 98 90 78 87 70 80 81 69
195 191 214 238 246 142 170 230 241 176 174 187 192 195 200 207 218 201 176 160 151 149 150 153 136 131 126 107 92 83 75 67 72 84 96 98 101 106 106 107 107 108 95 77 83 86 70 76 71
164 167 222 241 219 158 200 238 249 210 190 201 204 204 212 221 222 181 167 152 138 140 152 158 145 140 135 125 124 120 117 94 69 68 94 100 109 114 113 109 104 107 106 110 108 99 83 62 60
153 170 243 289 42 172 219 263 256 208 204 204 203 208 213 211 197 189 171 155 160 163 165 156 155 155 161 160 150 141 135 132 124 57 69 98 117 122 119 123 112 114 114 106 111 107 102 75 63
177 189 208 217 21 42 46 315 295 258 232 225 212 208 207 201 199 190 182 174 170 175 177 172 165 162 167 150 118 94 77 61 57 61 62 41 141 138 125 127 125 119 129 147 148 138 128 135 56
229 224 187 169 112 303 74 287 285 270 279 255 241 219 219 212 196 189 186 182 187 191 178 168 166 161 163 153 150 147 145 159 199 185 178 161 152 150 140 136 134 138 132 151 170 147 139 141 146
202 141 129 131 145 42 19 193 286 318 282 272 254 233 227 211 199 194 194 193 193 182 167 169 160 164 166 166 167 161 153 166 158 128 131 141 130 129 148 151 145 148 151 164 166 147 143 149 160
128 78 64 54 81 271 238 192 278 253 238 256 256 242 227 208 202 200 194 183 179 165 161 168 169 178 175 171 170 171 166 161 150 154 166 192 237 265 173 162 156 161 169 181 187 176 164 165 159
96 94 39 357 5 251 238 199 250 256 238 224 232 229 214 198 192 188 180 183 181 177 181 179 181 189 186 179 181 184 182 175 178 187 190 191 207 227 219 192 184 187 195 191 178 178 184 177 171
156 140 158 201 226 279 303 234 258 272 279 241 210 194 158 171 190 196 197 196 193 187 186 184 189 196 193 192 194 192 185 182 188 193 193 200 209 214 201 191 189 189 188 192 181 187 201 181 184
138 156 163 140 149 274 284 289 307 2 14 28 59 61 36 206 191 202 199 196 194 191 191 193 196 201 202 200 191 187 189 188 195 196 193 203 210 206 189 183 186 190 186 187 182 190 212 189 189
135 144 106 124 155 254 291 276 254 281 277 304 290 252 273 275 149 143 169 189 188 184 187 191 197 204 202 194 190 192 193 195 192 179 192 202 203 195 179 181 182 187 190 182 183 197 211 193 201
79 98 108 122 153 166 256 272 229 221 227 214 223 225 226 223 198 192 205 203 177 152 156 176 188 191 188 186 183 185 190 189 182 192 208 208 202 195 191 193 188 190 193 187 184 205 201 202 208
151 154 146 158 210 177 192 265 284 227 229 204 219 233 226 228 208 172 138 93 103 133 161 168 173 187 196 188 181 185 182 175 186 209 219 202 197 198 194 190 191 197 199 195 196 210 208 206 206
Height
1486 1486 1487 1488 1492 1504 1507 1503 1499 1499 1499 1499 1499 1499 1501 1504 1508 1513 1510 1507 1508 1507 1506 1506 1505 1505 1504 1503 1503 1503 1503 1503 1503 1502 1501 1503 1505 1507 1508 1508 1509 1509 1510 1511 1511 1512 1513 1514 1514
1486 1487 1489 1489 1501 1514 1511 1502 1500 1499 1499 1500 1500 1501 1503 1505 1506 1507 1508 1508 1509 1508 1508 1507 1507 1506 1506 1505 1505 1505 1505 1505 1505 1505 1505 1506 1507 1508 1509 1510 1511 1511 1512 1512 1513 1514 1515 1515 1516
1487 1488 1490 1494 1505 1512 1508 1500 1499 1499 1500 1500 1502 1503 1505 1507 1507 1508 1509 1509 1510 1509 1509 1509 1509 1508 1508 1507 1507 1507 1507 1507 1507 1508 1508 1509 1510 1510 1511 1512 1512 1513 1513 1514 1515 1516 1516 1517 1518
1488 1490 1493 1500 1506 1504 1501 1499 1498 1499 1500 1501 1502 1505 1507 1509 1509 1510 1510 1510 1511 1511 1511 1511 1510 1510 1510 1509 1509 1509 1510 1510 1510 1510 1511 1511 1512 1512 1513 1513 1514 1515 1515 1516 1517 1517 1518 1519 1519
1489 1490 1499 1507 1505 1501 1499 1498 1499 1499 1501 1502 1503 1506 1508 1510 1510 1511 1511 1512 1512 1512 1512 1512 1512 1512 1512 1512 1512 1512 1512 1512 1512 1513 1513 1513 1514 1514 1515 1515 1516 1517 1517 1518 1518 1519 1520 1520 1521
1490 1492 1507 1512 1506 1501 1499 1499 1499 1500 1501 1503 1504 1506 1509 1511 1511 1512 1513 1513 1514 1514 1514 1514 1514 1514 1514 1514 1514 1514 1514 1514 1515 1515 1515 1515 1516 1516 1517 1517 1518 1518 1519 1519 1520 1521 1521 1522 1522
1491 1497 1506 1508 1507 1503 1500 1499 1500 1501 1502 1504 1504 1507 1509 1511 1512 1513 1514 1515 1515 1516 1516 1516 1516 1516 1517 1516 1516 1516 1516 1517 1517 1517 1518 1518 1518 1518 1519 1519 1519 1520 1521 1521 1522 1522 1522 1523 1523
1491 1497 1505 1507 1506 1504 1499 1499 1500 1501 1503 1504 1505 1507 1509 1511 1512 1514 1515 1516 1517 1517 1518 1518 1518 1518 1518 1519 1519 1519 1519 1519 1519 1519 1520 1520 1520 1520 1521 1521 1522 1522 1522 1523 1523 1523 1524 1524 1524
1492 1502 1508 1506 1505 1502 1499 1500 1501 1502 1503 1505 1506 1507 1508 1510 1512 1514 1516 1517 1518 1518 1519 1520 1520 1520 1521 1521 1521 1521 1521 1521 1521 1521 1522 1522 1522 1522 1523 1523 1523 1524 1524 1524 1524 1524 1525 1525 1525
1492 1504 1503 1499 1499 1499 1499 1500 1501 1503 1504 1506 1506 1507 1509 1511 1512 1514 1515 1517 1518 1519 1520 1521 1521 1522 1522 1522 1523 1523 1523 1523 1523 1524 1524 1524 1524 1524 1525 1525 1525 1525 1525 1525 1526 1526 1526 1526 1526
1493 1499 1497 1497 1497 1498 1499 1501 1502 1503 1506 1506 1506 1507 1509 1511 1513 1514 1516 1517 1519 1520 1521 1522 1522 1523 1523 1524 1524 1524 1525 1525 1525 1525 1526 1526 1526 1526 1526 1526 1527 1527 1527 1527 1527 1527 1527 1527 1527
1494 1496 1496 1497 1498 1499 1500 1501 1503 1504 1505 1505 1506 1507 1509 1511 1513 1515 1517 1518 1519 1520 1521 1522 1523 1524 1524 1525 1525 1526 1526 1527 1527 1527 1527 1527 1528 1528 1528 1528 1528 1528 1528 1528 1528 1528 1528 1528 1529
1495 1496 1496 1497 1498 1499 1500 1501 1503 1504 1505 1506 1507 1509 1510 1511 1513 1516 1517 1519 1520 1521 1522 1523 1524 1525 1525 1526 1526 1527 1528 1528 1528 1529 1529 1529 1529 1529 1529 1529 1529 1529 1529 1529 1529 1529 1530 1530 1530
1495 1496 1497 1498 1499 1500 1501 1503 1504 1504 1505 1506 1507 1509 1510 1512 1514 1515 1517 1518 1520 1521 1523 1524 1524 1525 1526 1526 1527 1528 1528 1529 1529 1530 1530 1530 1530 1531 1530 1531 1530 1530 1530 1531 1530 1530 1531 1531 1531
1496 1498 1499 1499 1499 1500 1502 1506 1504 1504 1505 1506 1508 1509 1511 1512 1514 1515 1516 1518 1520 1521 1523 1524 1525 1526 1526 1527 1528 1529 1529 1530 1530 1530 1531 1531 1531 1531 1532 1532 1531 1531 1531 1531 1532 1532 1532 1532 1532
1497 1503 1508 1502 1500 1501 1506 1511 1504 1504 1505 1506 1508 1509 1510 1512 1513 1515 1516 1518 1520 1521 1523 1524 1525 1526 1527 1527 1528 1529 1530 1530 1531 1531 1531 1532 1532 1532 1532 1532 1532 1532 1532 1532 1532 1532 1532 1532 1532
1505 1510 1510 1505 1501 1501 1505 1509 1504 1504 1504 1505 1507 1508 1510 1511 1513 1514 1516 1517 1519 1521 1522 1523 1525 1526 1527 1528 1528 1529 1530 1531 1531 1531 1532 1532 1532 1532 1533 1533 1533 1533 1533 1533 1532 1532 1533 1533 1533
1510 1509 1509 1508 1502 1503 1506 1507 1503 1503 1504 1504 1506 1507 1509 1510 1511 1513 1515 1517 1518 1520 1522 1523 1524 1526 1526 1527 1528 1529 1530 1530 1531 1531 1532 1532 1532 1532 1533 1533 1533 1533 1533 1533 1532 1532 1533 1533 1533
1502 1506 1509 1506 1501 1503 1506 1506 1503 1502 1503 1504 1505 1506 1507 1508 1511 1512 1514 1515 1517 1519 1521 1522 1523 1524 1525 1526 1527 1528 1529 1530 1531 1531 1532 1532 1532 1532 1533 1533 1533 1533 1533 1533 1533 1533 1533 1533 1533
1502 1507 1508 1505 1500 1503 1506 1505 1502 1501 1501 1501 1502 1503 1505 1507 1509 1510 1512 1513 1515 1517 1519 1520 1522 1523 1524 1525 1527 1528 1529 1529 1530 1531 1532 1532 1532 1533 1533 1533 1533 1533 1533 1533 1533 1533 1533 1533 1533
1502 1506 1506 1506 1503 1504 1506 1509 1504 1500 1500 1500 1500 1501 1502 1504 1506 1508 1510 1511 1513 1515 1517 1518 1520 1522 1523 1525 1526 1527 1528 1528 1529 1530 1531 1531 1532 1532 1532 1532 1532 1532 1532 1532 1532 1533 1533 1533 1533
1504 1499 1501 1503 1510 1515 1511 1521 1508 1502 1500 1499 1498 1499 1500 1502 1504 1506 1507 1509 1511 1513 1515 1517 1519 1520 1522 1523 1524 1525 1526 1527 1528 1529 1530 1531 1531 1531 1532 1532 1532 1532 1531 1532 1532 1532 1532 1532 1533
1499 1497 1501 1504 1509 1516 1514 1520 1514 1504 1503 1499 1497 1497 1497 1499 1501 1503 1505 1506 1509 1511 1513 1515 1517 1519 1520 1522 1523 1524 1525 1526 1527 1528 1528 1529 1530 1530 1530 1530 1530 1530 1531 1531 1531 1531 1531 1532 1532
1495 1501 1505 1510 1515 1524 1516 1520 1517 1507 1501 1497 1496 1495 1496 1497 1498 1500 1503 1505 1507 1509 1511 1513 1515 1517 1519 1520 1521 1522 1523 1524 1525 1526 1527 1527 1528 1528 1529 1529 1529 1529 1529 1530 1530 1530 1530 1530 1531
1498 1510 1523 1525 1529 1527 1516 1517 1514 1500 1496 1495 1494 1494 1495 1495 1496 1498 1500 1502 1505 1507 1509 1511 1513 1515 1516 1518 1519 1520 1522 1522 1523 1524 1525 1525 1526 1526 1526 1527 1527 1527 1528 1528 1528 1528 1529 1529 1529
1500 1507 1524 1530 1531 1527 1517 1518 1507 1496 1494 1493 1493 1493 1494 1494 1495 1496 1498 1500 1502 1504 1506 1508 1511 1512 1514 1516 1517 1518 1520 1520 1521 1522 1523 1524 1524 1524 1524 1525 1525 1525 1526 1526 1526 1526 1527 1527 1527
1500 1506 1508 1520 1523 1527 1522 1513 1502 1494 1494 1493 1493 1493 1493 1493 1494 1496 1497 1498 1500 1502 1504 1506 1508 1509 1511 1513 1515 1516 1517 1518 1519 1520 1521 1521 1522 1522 1522 1522 1523 1523 1523 1524 1524 1524 1524 1525 1525
1496 1502 1512 1519 1527 1530 1523 1516 1510 1499 1496 1495 1494 1493 1493 1494 1494 1495 1496 1497 1498 1500 1501 1504 1505 1507 1508 1510 1512 1513 1515 1516 1517 1517 1518 1518 1519 1519 1519 1520 1520 1521 1521 1521 1521 1522 1522 1522 1523
1501 1505 1510 1518 1520 1528 1528 1519 1498 1496 1494 1494 1493 1493 1493 1493 1494 1494 1495 1496 1497 1498 1499 1501 1503 1504 1506 1507 1509 1510 1511 1513 1513 1514 1515 1515 1516 1516 1517 1517 1517 1518 1518 1518 1518 1519 1519 1520 1520
1498 1501 1508 1516 1520 1522 1525 1518 1493 1492 1491 1491 1492 1492 1493 1493 1493 1494 1494 1495 1496 1496 1498 1499 1500 1502 1503 1504 1506 1507 1508 1510 1510 1511 1512 1512 1513 1513 1513 1514 1515 1515 1515 1516 1516 1516 1516 1517 1517